BREEZE-M R/B, 55842

Orbit data source: Space-Track

BREEZE-M R/B, 55842 is space debris in GEO originally from a launch on Sun, 12 Mar 2023 UTC launched from the Tyuratam Missile And Space Complex (TTMTR). Debris objects in space refer to the collection of defunct objects orbiting the Earth. Examples of debris include non-operational satellites, rocket bodies, and fragments generated from explosions, collisions, or faulty payload assembly.

Loading next visibility...
Identifier
55842, 2023-031B
Orbit
GEO
Last TLE update
13 hours ago
Origin
Manufacturer
Khrunichev
Mission
Spacecraft
Bus & Motor
BRIZ, Unknown motor
Mass
~1,600 kg wet, 1,600 kg dry
Launch date (UTC)
2023-03-12 (2 years ago)
Launch vehicle
Unknown
Launch site
Tyuratam Missile And Space Complex (TTMTR)
Object type
Payload
Rocket body
Debris
Shape & HBR
Cyl, 4 m
Radar Cross Section
4.000 m²

Expand to show TLE details & history

TLE from 13 hours ago
0 BREEZE-M R/B
1 55842U 23031B   25128.76763002 -.00000156  00000-0  00000-0 0  9995
2 55842   1.7749  84.0750 0068700 359.9819 359.9786  0.98961295  7770
Epoch: 2025-05-08T18:25Z
Definitive object data (Epoch: 2025-05-08T18:25:23.233Z)
Latitude
-0°
Longitude
-59.14338°
Altitude
35,865.13 km
Speed
3.082 km/s
True Right ascension
05h 36m 08s
True Declination
0° 00' 00"
Sunlit
Object was in daylight at TLE epoch
Visualization TLE readout
Latitude
-0.27043°
Longitude
129.68334°
Altitude
36,446.327 km
Speed
3.041 km/s
Apparent Right ascension
18h 31m 01s
Apparent Declination
-6° 11' 19"
Sunlit
Object is in daylight
Visualization observer readout
Local Sidereal Time
15:18:05
Azimuth
124.393° SE
Elevation
26.023°
Doppler factor
1
Orbital elements
Apogee altitude
36,451.312 km
Perigee altitude
35,866.85 km
Semi-major axis
42,537.218 km
Eccentricity
0.00687
Inclination
1.7749°
RAAN
84.075°
Arg. of periapsis
359.9819°
True anomaly
359.9783°
Mean anomaly
359.9786°
Eccentric anomaly
359.97845°
Mean motion
0.24739 °/min
BSTAR
Unknown
Orbital period
1455.17 mins
Loading historical data...
55842 neighbors
Loading maneuver chart data...
Loading SW <> Apogee altitude chart data...
Loading historical data...
Loading historical data...
Loading historical data...
Loading historical data...
Loading historical data...
Loading historical data...
Loading historical data...
Other satellites on launch #31 in the year 2023 (2023-03-12 UTC)

BREEZE-M R/B Visibility forecast

Observer location: undefined°, undefined°

Span
Click to sort rows by Start time (UTC) header in descending order
Start Az.
Max El. time (UTC)
Max El. Az.
Max El.
End time (UTC)
End Az.
1440 mins2025-05-09 07:09:08.730Z124.407° SE2025-05-10 03:13:08.730Z126.173° SE26.236°2025-05-10 07:09:08.730Z128.829° SE
|